Regional Weather Roundup
Issued by NWS

Home | Current Version | Previous Version | Graphics & Text | Print | Product List | Glossary On
Versions: 1 2 3 4 5 6 7 8 9 10 11 12 13 14 15 16 17 18 19 20 21 22 23 24 25 26 27 28 29 30 31 32 33 34 35 36 37 38 39 40 41 42 43 44 45 46 47 48 49 50
000
ASUS43 KDTX 270001
RWRMI
MICHIGAN HOURLY REGIONAL WEATHER ROUNDUP
NATIONAL WEATHER SERVICE DETROIT/PONTIAC MI
800 PM EDT THU MAY 26 2016

NOTE: "FAIR" INDICATES FEW OR NO CLOUDS BELOW 12,000 FEET WITH NO
SIGNIFICANT WEATHER AND/OR OBSTRUCTION TO VISIBILITY.

MIZ047>049-052>055-059>063-066>070-074>076-081>083-270100-
SOUTHEAST LOWER MICHIGAN

CITY           SKY/WX    TMP DP  RH WIND       PRES   REMARKS
ADRIAN         PTCLDY    82  63  52 SW14      29.89S
6HR MIN TEMP:  81; 6HR MAX TEMP:  85;

ALMA           CLOUDY    77  67  70 SW5       29.85F
ANN ARBOR      PTCLDY    80  64  58 SW7       29.88S
BAD AXE        MOCLDY    81  61  50 SW5       29.86S
CARO           CLOUDY    80  64  57 S5        29.85F
DETROIT CITY   MOCLDY    82  62  50 S12       29.88S
6HR MIN TEMP:  82; 6HR MAX TEMP:  85;

DETROIT        CLOUDY    83  64  52 S12       29.88F
6HR MIN TEMP:  82; 6HR MAX TEMP:  86;

FLINT          CLOUDY    84  63  49 S7        29.86F
6HR MIN TEMP:  84; 6HR MAX TEMP:  88;

GROSSE ILE     CLOUDY    72  66  83 S5        29.88S
HILLSDALE      CLOUDY    81  56  42 S10       29.90S
6HR MIN TEMP:  80; 6HR MAX TEMP:  83;

HOWELL         PTCLDY    81  63  53 S6        29.87F
6HR MIN TEMP:  81; 6HR MAX TEMP:  85;


CITY           SKY/WX    TMP DP  RH WIND       PRES   REMARKS
JACKSON        MOCLDY    81  56  42 SW7       29.87F
6HR MIN TEMP:  80; 6HR MAX TEMP:  84;

LAMBERTVILLE   PTCLDY    82  64  53 SW8       29.90S
6HR MIN TEMP:  82; 6HR MAX TEMP:  86;

LANSING        MOSUNNY   80  62  54 SW9       29.86F
6HR MIN TEMP:  79; 6HR MAX TEMP:  84;

LAPEER         FAIR      81  61  49 S5        29.88S
6HR MIN TEMP:  81; 6HR MAX TEMP:  86;

MASON          MOCLDY    83  60  45 SW6       29.86F
MONROE         CLOUDY    82  65  58 S6        29.88S
6HR MIN TEMP:  82; 6HR MAX TEMP:  85;

PONTIAC        CLOUDY    82  63  52 S5        29.88S
6HR MIN TEMP:  81; 6HR MAX TEMP:  84;

PORT HOPE        N/A     63  60  90 SE5       29.84S
6HR MIN TEMP:  60; 6HR MAX TEMP:  69;

PORT HURON     CLEAR     79  64  61 S6        29.90R
TRI CITIES     MOCLDY    84  63  49 SW9       29.84F
6HR MIN TEMP:  81; 6HR MAX TEMP:  86;

MIDLAND        FAIR      80  65  59 SW5       29.82F
6HR MIN TEMP:  80; 6HR MAX TEMP:  84;

TROY           MOCLDY    84  62  46 S5        29.90S
SAGINAW HB     HVY RAIN  73  66  78 W21G33    29.85S
$$
MIZ043>046-050>051-056>058-064>065-071>073-077>080-270100-
SOUTHWEST LOWER MICHIGAN

CITY           SKY/WX    TMP DP  RH WIND       PRES   REMARKS
BATTLE CREEK   MOSUNNY   79  60  52 SW10      29.87F
6HR MIN TEMP:  78; 6HR MAX TEMP:  83;

BENTON HARBOR  SUNNY     78  63  59 W5        29.85S
6HR MIN TEMP:  76; 6HR MAX TEMP:  84;

BIG RAPIDS     MOSUNNY   76  64  65 SW6       29.84F
6HR MIN TEMP:  76; 6HR MAX TEMP:  79;

COLDWATER      MOSUNNY   80  55  43 S5        29.88S
6HR MIN TEMP:  79; 6HR MAX TEMP:  84;

FREMONT        FAIR      78  61  55 SW6       29.84R
HOLLAND        SUNNY     77  63  61 SW9       29.86S
6HR MIN TEMP:  76; 6HR MAX TEMP:  81;

GRAND RAPIDS   MOSUNNY   81  63  54 W9        29.85F
6HR MIN TEMP:  76; 6HR MAX TEMP:  86; 6HR PCP:  0.14;

IONIA          FAIR      79  61  53 SW7       29.84S
6HR MIN TEMP:  79; 6HR MAX TEMP:  84;

KALAMAZOO      MOSUNNY   81  60  48 S12       29.86S
6HR MIN TEMP:  79; 6HR MAX TEMP:  85;

LUDINGTON      SUNNY     75  63  67 SW6       29.84R
6HR MIN TEMP:  73; 6HR MAX TEMP:  78;

MARSHALL       CLOUDY    81  56  42 S9        29.86S
6HR MIN TEMP:  80; 6HR MAX TEMP:  84;

MOUNT PLEASANT CLOUDY    80  62  54 W6        29.83F
6HR MIN TEMP:  79; 6HR MAX TEMP:  83;

MUSKEGON       MOSUNNY   75  62  64 S7        29.85S
6HR MIN TEMP:  75; 6HR MAX TEMP:  79;

SOUTH HAVEN    SUNNY     78  61  55 SW5       29.86R
$$
MIZ016>042-270100-
NORTHERN LOWER MICHIGAN

CITY           SKY/WX    TMP DP  RH WIND       PRES   REMARKS
ALPENA         CLOUDY    71  66  84 E6        29.82F
6HR MIN TEMP:  69; 6HR MAX TEMP:  88; 6HR PCP:  0.02;

BEAVER ISLAND  CLOUDY    54  53  96 SW7       29.81F FOG
6HR MIN TEMP:  54; 6HR MAX TEMP:  73;

BELLAIRE       MOSUNNY   76  60  57 NW5       29.81S
6HR MIN TEMP:  74; 6HR MAX TEMP:  83;

CADILLAC       SUNNY     76  60  56 SW8       29.84S
CHARLEVOIX     PTSUNNY   60  57  91 W8G21     29.86R FOG
FRANKFORT      SUNNY     71  64  78 SW6       29.82S
GAYLORD        SUNNY     76  59  55 W13G20    29.83S
6HR MIN TEMP:  71; 6HR MAX TEMP:  83; 6HR PCP:  0.31;

GRAYLING       MOSUNNY   80  58  47 W7G18     29.83F
6HR MIN TEMP:  71; 6HR MAX TEMP:  82;

HARBOR SPRINGS CLOUDY    59  57  96 W3        29.84R FOG
HOUGHTON LAKE  SUNNY     77  59  53 SW8       29.84F
6HR MIN TEMP:  71; 6HR MAX TEMP:  81; 6HR PCP: TRACE;

MANISTEE       SUNNY     77  59  53 SW9       29.83R
OSCODA         CLEAR     74  68  80 S9        29.83F
6HR MIN TEMP:  71; 6HR MAX TEMP:  86; 6HR PCP:  0.13;

PELLSTON       MOSUNNY   67  60  78 W9G21     29.82S
6HR MIN TEMP:  67; 6HR MAX TEMP:  83; 6HR PCP:  0.01;

ROGERS CITY    PTSUNNY   60  57  91 CALM      29.83S FOG
TRAVERSE CITY  PTSUNNY   79  60  52 W13       29.80S
6HR MIN TEMP:  79; 6HR MAX TEMP:  86;

$$
MIZ007>008-015-270100-
EASTERN UPPER MICHIGAN

CITY           SKY/WX    TMP DP  RH WIND       PRES   REMARKS
KINROSS          N/A     64  64 100 S5        29.80S
6HR MIN TEMP:  63; 6HR MAX TEMP:  75;

MACKINAC ISLAN CLOUDY    61  57  87 N5        29.81F
6HR MIN TEMP:  60; 6HR MAX TEMP:  68;

NEWBERRY       PTSUNNY   59  58  97 E5        29.76F
6HR MIN TEMP:  58; 6HR MAX TEMP:  69; 6HR PCP:  0.02;

S. S. MARIE    CLOUDY    67  64  90 SW7       29.79S
6HR MIN TEMP:  64; 6HR MAX TEMP:  74; 6HR PCP:  0.20;

MUNISING         N/A     54  51  90 CALM      29.80S
6HR MIN TEMP:  50; 6HR MAX TEMP:  66; 6HR PCP:  1.47;

$$
MIZ004>006-011>014-085-270100-
CENTRAL UPPER MICHIGAN

CITY           SKY/WX    TMP DP  RH WIND       PRES   REMARKS
MANISTIQUE     CLOUDY    56  55  97 S3        29.80R
6HR MIN TEMP:  53; 6HR MAX TEMP:  64; 6HR PCP:  0.04;

ESCANABA       SUNNY     66  61  82 SE6       29.79S
6HR MIN TEMP:  57; 6HR MAX TEMP:  70; 6HR PCP:  0.25;

MENOMINEE      SUNNY     65  60  84 SE7       29.82R
6HR MIN TEMP:  64; 6HR MAX TEMP:  74; 6HR PCP:  0.24;

SAWYER-GWINN   MOSUNNY   66  57  72 SW3       29.80F
$$
MIZ001>003-009>011-084-270100-
WESTERN UPPER MICHIGAN

CITY           SKY/WX    TMP DP  RH WIND       PRES   REMARKS
IRON MOUNTAIN  MOSUNNY   74  59  59 CALM      29.78S
6HR MIN TEMP:  63; 6HR MAX TEMP:  74; 6HR PCP:  0.04;

HOUGHTON       SUNNY     65  58  78 NW7       29.77F
6HR MIN TEMP:  59; 6HR MAX TEMP:  69; 6HR PCP:  0.10;

COPPER HARBOR    N/A     48  48 100 CALM      29.78F
6HR MIN TEMP:  44; 6HR MAX TEMP:  51; 6HR PCP:  0.01;

IRONWOOD       SUNNY     68  61  77 E3        29.75S
6HR MIN TEMP:  55; 6HR MAX TEMP:  73; 6HR PCP:  0.04;

$$

ABBREVIATIONS USED IN REMARKS
   TC - TEMPERATURE IN CELSIUS
  WCI - WIND CHILL INDEX
   HX - HEAT INDEX
  VSB - VISIBILITY




USA.gov is the U.S. government's official web portal to all federal, state and local government web resources and services.